Location: Clarks Summit,Pa.
(41.5000°N, 75.6000°W)
Time: 20:16:07
(UTC-05:00)

Envisat - Pass Details

Date: 03 December 2021
Orbit: 764 x 766 km, 98.2° (Epoch: 16 January)

Event Time Altitude Azimuth Distance (km) Brightness Sun altitude
Rises 17:25:30 0° 208° (SSW) 3,219 7.1 -9.7°
Reaches altitude 10° 17:28:35 10° 228° (SW) 2,298 6.7 -10.3°
Maximum altitude 17:31:52 17° 269° (W) 1,850 6.1 -10.9°
Drops below altitude 10° 17:35:11 10° 310° (NW) 2,310 5.9 -11.4°
Sets 17:38:18 0° 330° (NNW) 3,241 6.4 -12.0°
